Regional Weather Roundup
Issued by NWS Sterling, VA

Home | Current Version | Previous Version | Graphics & Text | Print | Product List | Glossary Off
Versions: 1 2 3 4 5 6 7 8 9 10 11 12 13 14 15 16 17 18 19 20 21 22 23 24 25 26 27 28 29 30 31 32 33 34 35 36 37 38 39 40 41 42 43 44 45 46 47 48 49 50

997
ASUS41 KLWX 231411
RWRLWX

REGIONAL WEATHER ROUNDUP
NATIONAL WEATHER SERVICE BALTIMORE MD/WASHINGTON DC
1000 AM EDT SUN APR 23 2017

Note: "FAIR" indicates few or no clouds below 12,000 feet
with no significant weather and/or obstructions to visibility.
 TC=TEMPERATURE CELSIUS

 * =Non NWS site. Station does not report precipitation (e.g. rain,
    snow, etc.), thunder, or fog.

DCZ001-MDZ009-015-VAZ040>042-051-053>054-231500-
WASHINGTON METRO

CITY           SKY/WX    TMP DP  RH WIND       PRES   REMARKS
WASHINGTON NAT CLOUDY    52  42  69 NE7       30.14S
DULLES         CLOUDY    51  39  63 N8        30.14R
ANDREWS AFB    CLOUDY    50  41  71 NE7       30.12R
FT BELVOIR     CLOUDY    51  39  63 NE5       30.14R
QUANTICO       CLOUDY    53  43  68 NE9       30.14S
COLLEGE PARK*  CLOUDY    49  39  67 N3        30.14R
LEESBURG*      SUNNY     52  41  66 NE10      30.15R
MANASSAS*        N/A     50  40  68 NE7       30.14S

$$

MDZ006>007-011-014-231500-
BALTIMORE METRO

CITY           SKY/WX    TMP DP  RH WIND       PRES   REMARKS
BWI AIRPORT    CLOUDY    52  40  63 NE10      30.13R
MD SCIENCE CTR   N/A     53  37  54 MISG      30.14R
MARTIN STATE   PTSUNNY   54  43  66 N14       30.15R
ANNAPOLIS      CLOUDY    53  41  63 NE8       30.12F
FORT MEADE*    PTSUNNY   50  39  66 NE7       30.16R

$$

MDZ012-015-019>023-231500-
MARYLAND EASTERN SHORE

CITY           SKY/WX    TMP DP  RH WIND       PRES   REMARKS
OCEAN CITY     CLOUDY    53  45  74 NE14      30.11R
SALISBURY      CLOUDY    53  45  74 NE14      30.10R
BAY BRIDGE AP* CLOUDY    52  41  66 E7        30.13S
CAMBRIDGE*     SUNNY     52  43  71 NE10      30.12S
EASTON*        PTSUNNY   54  41  62 E8        30.16R

$$

MDZ017>025-231500-
SOUTHERN MARYLAND

CITY           SKY/WX    TMP DP  RH WIND       PRES   REMARKS
PATUXENT RIVER CLOUDY    52  45  77 NE13      30.11S
ST INIGOES     PTSUNNY   52  43  71 VRB5      30.11R
LEONARDTOWN*   CLOUDY    50  41  71 CALM      30.14R

$$

MDZ003>005-231500-
NORTH CENTRAL MARYLAND

CITY           SKY/WX    TMP DP  RH WIND       PRES   REMARKS
FREDERICK*     SUNNY     54  45  71 N7        30.17R
HAGERSTOWN APT SUNNY     54  38  54 E7        30.13S
WESTMINSTER*   SUNNY     52  39  62 N5        30.13R

$$

MDZ501>502-231500-
WESTERN MARYLAND

CITY           SKY/WX    TMP DP  RH WIND       PRES   REMARKS
OAKLAND*         N/A     43  32  65 SE14G20   30.07R
CUMBERLAND*    SUNNY     54  41  62 CALM      30.18S

$$

VAZ025>031-231500-
SHENANDOAH VALLEY

CITY           SKY/WX    TMP DP  RH WIND       PRES   REMARKS
WINCHESTER*    SUNNY     50  36  57 NE7       30.13S
FRONT ROYAL*   SUNNY     48  41  76 N8        30.12S
LURAY*         SUNNY     48  41  76 N10       30.11F
NEW MARKET*    PTSUNNY   49  39  67 E7        30.11F
STAUNTON*      CLOUDY    47  42  81 N7        30.13S
WAYNESBORO*    CLOUDY    48  45  90 N8        30.10R

$$

WVZ021-048>050-054>055-231500-
EASTERN WEST VIRGINIA PANHANDLE

CITY           SKY/WX    TMP DP  RH WIND       PRES   REMARKS
MARTINSBURG    SUNNY     52  38  58 E8        30.13S
PETERSBURG*    MOSUNNY   51  42  71 CALM      30.13S

$$

VAZ036>039-050-231500-
CENTRAL FOOTHILLS

CITY           SKY/WX    TMP DP  RH WIND       PRES   REMARKS
CHARLOTTESVILL PTSUNNY   52  40  63 NE9       30.12R
CULPEPER*      CLOUDY    51  40  64 N8        30.14S
ORANGE*        CLOUDY    48  37  66 NE5G16    30.12F
GORDONSVILLE*  CLOUDY    49  40  70 N12       30.12R
WARRENTON*     CLOUDY    51  38  61 NE7       30.13S

$$

VAZ055>057-231500-
NORTH AND CENTRAL PIEDMONT

CITY           SKY/WX    TMP DP  RH WIND       PRES   REMARKS
FREDERICKSBRG* CLOUDY    52  43  71 NE10      30.12S
STAFFORD*      PTSUNNY   50  44  78 NE6       30.17S

$$

NCZ024-NYZ072-PAZ021-071-VAZ022-071-231500-
OTHER REGIONAL OBSERVATIONS

CITY           SKY/WX    TMP DP  RH WIND       PRES   REMARKS
NEW YORK CITY  SUNNY     54  36  50 VRB6      30.15S
PHILADELPHIA   CLOUDY    54  38  54 E10       30.13F
PITTSBURGH     MOSUNNY   52  35  52 SE12      30.12R
ROANOKE        CLOUDY    50  45  83 CALM      30.10R
RICHMOND       CLOUDY    52  47  83 NE8       30.10R
RALEIGH        LGT RAIN  53  51  93 NE10      30.03R FOG

$$

ANZ530>537-231500-
MARINE OBSERVATIONS

STATION/POSITION TIME  TEMP    WIND        PRES
                       AIR SEA DIR/SP/G
                 (UTC) (F)     (DEG/KT/KT) (MB)
THOMAS PT LIGHT  1400   51 58   70/ 10/ 11   N/A
BALT KEY BRIDGE  1348   51      70/ 11/ 12 1020.4R
COVE POINT       1348   50      60/ 10/ 13 1020.3F
LEWISETTA        1348   53 63   60/  8/ 12 1019.2R
SOLOMONS ISLAND  1348           30/  8/ 14   N/A
PINEY POINT      1348           60/  7/  9   N/A

$$





USA.gov is the U.S. government's official web portal to all federal, state and local government web resources and services.